Regional Weather Roundup
Issued by NWS

Home | Current Version | Previous Version | Graphics & Text | Print | Product List | Glossary On
Versions: 1 2 3 4 5 6 7 8 9 10 11 12 13 14 15 16 17 18 19 20 21 22 23 24 25 26 27 28 29 30 31 32 33 34 35 36 37 38 39 40 41 42 43 44 45 46 47 48 49 50
019
ASUS43 KLSX 161557
RWRMO

WEATHER SUMMARY FOR MISSOURI
NATIONAL WEATHER SERVICE SPRINGFIELD MO
1000 AM CST SAT DEC 16 2017

NOTE: "FAIR" INDICATES FEW OR NO CLOUDS BELOW 12,000 FEET WITH NO
       SIGNIFICANT WEATHER AND/OR OBSTRUCTIONS TO VISIBILITY.
       CURRENT SKY AND/OR WEATHER CONDITIONS ARE NOT AVAILABLE FOR
       CHILLICOTHE AND FARMINGTON.

MOZ001>031-035>038-043-044-053-054-161700-
...NORTHERN AND WESTERN MISSOURI...

CITY           SKY/WX    TMP DP  RH WIND       PRES   REMARKS
KANSAS CTY INT SUNNY     44  26  49 SW14      29.89R
LEE`S SUMMIT   SUNNY     45  26  47 SW17      29.92R
ST JOSEPH      SUNNY     43  28  55 SW15      29.88R
CHILLICOTHE      N/A     43  27  53 S10       29.90R

$$
MOZ066>068-077>081-088>096-101>105-161700-
...SOUTHWEST MISSOURI...

CITY           SKY/WX    TMP DP  RH WIND       PRES   REMARKS
SPRINGFIELD    SUNNY     48  28  46 S14       30.03R
JOPLIN         SUNNY     49  27  42 SW18      30.03R
BRANSON        MOSUNNY   50  23  34 SW9       30.09R

$$
MOZ032>034-039>042-045>050-055>058-069>072-161700-
...CENTRAL MISSOURI...

CITY           SKY/WX    TMP DP  RH WIND       PRES   REMARKS
COLUMBIA       NOT AVBL
JEFFERSON CITY SUNNY     46  26  45 S8        30.00R
ROLLA          SUNNY     46  27  47 SW21G26   30.01R
SEDALIA        SUNNY     48  27  44 SW21G30   29.96R
WARRENSBURG    SUNNY     45  27  49 S12G17    29.94S

$$
MOZ051-052-059>065-161700-
...EAST CENTRAL MISSOURI...

CITY           SKY/WX    TMP DP  RH WIND       PRES   REMARKS
ST LOUIS INTL  MOSUNNY   47  27  45 SW16      30.01R

$$
MOZ072>076-082>087-097>100-106>115-161700-
...SOUTH CENTRAL AND SOUTHEAST MISSOURI...

CITY           SKY/WX    TMP DP  RH WIND       PRES   REMARKS
CAPE GIRARDEAU SUNNY     40  31  70 S8        30.16R
POPLAR BLUFF   SUNNY     40  33  76 SW13      30.17R
WEST PLAINS    SUNNY     46  27  47 SW13      30.10R

$$



USA.gov is the U.S. government's official web portal to all federal, state and local government web resources and services.